WetterOnline ( http://www.wetteronline.de )

Wetter aktuell PLZ Bereich 36404

Aktuelles Wetter: Bad Hersfeld (273m)

6-stündlich | Neueste Meldungen
Ortszeit Temperatur Wetter
Mi, 20.06. 2:00 14.2° C wolkig
Di, 19.06. 20:00 21.8° C bedeckt
Di, 19.06. 14:00 21.7° C bedeckt
Di, 19.06. 8:00 18.0° C wolkenlos
Di, 19.06. 2:00 14.8° C leicht bewölkt
Mo, 18.06. 20:00 20.6° C bedeckt
Mo, 18.06. 14:00 19.9° C bedeckt
Mo, 18.06. 8:00 14.8° C bedeckt
Ortszeit Temperatur Wetter
Mi, 20.06. 5:30 12.6° C bewölkt
Mi, 20.06. 5:20 12.6° C bewölkt
Mi, 20.06. 5:10 12.6° C bewölkt
Mi, 20.06. 5:00 12.6° C bedeckt
Mi, 20.06. 4:50 12.6° C bedeckt
Mi, 20.06. 4:40 12.6° C bewölkt
Mi, 20.06. 4:30 12.6° C leicht bewölkt
Mi, 20.06. 4:00 12.8° C wolkenlos
Mi, 20.06. 3:30 13.4° C leicht bewölkt
Mi, 20.06. 3:00 13.4° C wolkig
Mi, 20.06. 2:30 13.7° C wolkig
Ortszeit Relative Feuchte Sichtweite
Mi, 20.06. 2:00 94% 12 km
Di, 19.06. 20:00 62% 17 km
Di, 19.06. 14:00 59% 20 km
Di, 19.06. 8:00 71% 14 km
Di, 19.06. 2:00 83% 16 km
Mo, 18.06. 20:00 57% 23 km
Mo, 18.06. 14:00 55% 21 km
Mo, 18.06. 8:00 71% 22 km
Ortszeit Relative Feuchte Sichtweite
Mi, 20.06. 5:30 97% 6 km
Mi, 20.06. 5:20 97% -
Mi, 20.06. 5:10 97% -
Mi, 20.06. 5:00 97% 9 km
Mi, 20.06. 4:50 97% -
Mi, 20.06. 4:40 97% -
Mi, 20.06. 4:30 97% 8 km
Mi, 20.06. 4:00 97% 8 km
Mi, 20.06. 3:30 96% 9 km
Mi, 20.06. 3:00 95% 11 km
Mi, 20.06. 2:30 96% 9 km
Ortszeit Niederschlagsmenge Niederschlagsart
Mi, 20.06. 2:00 0.0 l/m2 in 6 Std. -
Di, 19.06. 20:00 0.0 l/m2 in 12 Std. -
Di, 19.06. 14:00 0.0 l/m2 in 6 Std. -
Di, 19.06. 8:00 0.0 l/m2 in 12 Std. -
Di, 19.06. 2:00 0.0 l/m2 in 6 Std. -
Mo, 18.06. 20:00 0.0 l/m2 in 12 Std. -
Mo, 18.06. 14:00 0.0 l/m2 in 6 Std. -
Mo, 18.06. 8:00 0.1 l/m2 in 12 Std. -
Ortszeit Niederschlagsmenge Niederschlagsart
Mi, 20.06. 5:30 0.0 l/m2 in 1 Std. -
Mi, 20.06. 5:20 keine Meldung -
Mi, 20.06. 5:10 keine Meldung -
Mi, 20.06. 5:00 0.0 l/m2 in 1 Std. -
Mi, 20.06. 4:50 keine Meldung -
Mi, 20.06. 4:40 keine Meldung -
Mi, 20.06. 4:30 0.0 l/m2 in 1 Std. -
Mi, 20.06. 4:00 0.0 l/m2 in 1 Std. -
Mi, 20.06. 3:30 0.0 l/m2 in 1 Std. -
Mi, 20.06. 3:00 0.0 l/m2 in 1 Std. -
Mi, 20.06. 2:30 0.0 l/m2 in 1 Std. -
Ortszeit Stärke Spitze Richtung
km/h Bft. km/h Grad Sektor
Mi, 20.06. 2:00 0 0 14 - -
Di, 19.06. 20:00 7 2 25 230° SW
Di, 19.06. 14:00 14 3 29 250° W
Di, 19.06. 8:00 9 2 19 240° SW
Di, 19.06. 2:00 4 1 25 220° SW
Mo, 18.06. 20:00 18 3 32 220° SW
Mo, 18.06. 14:00 11 2 32 220° SW
Mo, 18.06. 8:00 11 2 14 170° S
Ortszeit Stärke Spitze Richtung
km/h Bft. km/h Grad Sektor
Mi, 20.06. 5:30 4 1 4 50° NO
Mi, 20.06. 5:20 4 1 - 50° NO
Mi, 20.06. 5:10 2 1 - 350° N
Mi, 20.06. 5:00 0 0 4 - -
Mi, 20.06. 4:50 0 0 - 300° NW
Mi, 20.06. 4:40 2 1 - 270° W
Mi, 20.06. 4:30 4 1 4 180° S
Mi, 20.06. 4:00 0 0 4 - -
Mi, 20.06. 3:30 0 0 4 - -
Mi, 20.06. 3:00 4 1 4 20° N
Mi, 20.06. 2:30 0 0 4 - -
Ortszeit Untergrenze Bedeckung Gattung
total tief tief mittel hoch
Mi, 20.06. 2:00 7200 m 8/8 0/8 - - -
Di, 19.06. 20:00 1500 m 8/8 8/8 - - -
Di, 19.06. 14:00 1050 m 8/8 8/8 - - -
Di, 19.06. 8:00 - 0/8 0/8 - - -
Di, 19.06. 2:00 1800 m 2/8 2/8 - - -
Mo, 18.06. 20:00 1500 m 8/8 8/8 - - -
Mo, 18.06. 14:00 1290 m 8/8 8/8 - - -
Mo, 18.06. 8:00 1500 m 8/8 8/8 - - -
Ortszeit Bedeckungsgrad in Achtel und Wolkenuntergrenze
Mi, 20.06. 5:30 7(30m) 7(870m)
Mi, 20.06. 5:20 7(30m) 7(870m)
Mi, 20.06. 5:10 6(30m) 7(870m) 7(1500m)
Mi, 20.06. 5:00 7(870m) 7(1320m) 8(1500m)
Mi, 20.06. 4:50 7(870m) 7(1320m) 8(1500m)
Mi, 20.06. 4:40 7(870m)
Mi, 20.06. 4:30 3(930m)
Mi, 20.06. 4:00 1(960m)
Mi, 20.06. 3:30 5(8400m)
Mi, 20.06. 3:00 4(7500m) 8(8100m)
Mi, 20.06. 2:30 7(7800m) 8(8400m) 8(9000m)
Ortszeit Luftdruck NN (hPa) Tendenz (hPa in 3 Std.)
Mi, 20.06. 2:00 1025 + 0,2
Di, 19.06. 20:00 1023 - 0,1
Di, 19.06. 14:00 1023 + 0,6
Di, 19.06. 8:00 1023 + 1,1
Di, 19.06. 2:00 1022 + 0,2
Mo, 18.06. 20:00 1021 - 0,6
Mo, 18.06. 14:00 1021 - 0,5
Mo, 18.06. 8:00 1022 + 0,7
Ortszeit Luftdruck NN (hPa) Tendenz (hPa in 3 Std.)
Mi, 20.06. 5:30 1024 - 0,5
Mi, 20.06. 5:20 1024 keine Meldung
Mi, 20.06. 5:10 1024 keine Meldung
Mi, 20.06. 5:00 1024 - 0,5
Mi, 20.06. 4:50 1024 keine Meldung
Mi, 20.06. 4:40 1024 keine Meldung
Mi, 20.06. 4:30 1024 - 0,6
Mi, 20.06. 4:00 1024 - 0,5
Mi, 20.06. 3:30 1024 - 0,4
Mi, 20.06. 3:00 1025 - 0,2
Mi, 20.06. 2:30 1025 + 0,1
Ortszeit Schneehöhe (cm)
Mi, 20.06. 2:00 -
Di, 19.06. 20:00 -
Di, 19.06. 14:00 -
Di, 19.06. 8:00 -
Di, 19.06. 2:00 -
Mo, 18.06. 20:00 -
Mo, 18.06. 14:00 -
Mo, 18.06. 8:00 -
Ortszeit Schneehöhe (cm)
Mi, 20.06. 5:30 -
Mi, 20.06. 5:20 -
Mi, 20.06. 5:10 -
Mi, 20.06. 5:00 -
Mi, 20.06. 4:50 -
Mi, 20.06. 4:40 -
Mi, 20.06. 4:30 -
Mi, 20.06. 4:00 -
Mi, 20.06. 3:30 -
Mi, 20.06. 3:00 -
Mi, 20.06. 2:30 -
Link zu dieser Seite / Seite empfehlen

Das Wetter in ...